Zurück zum Katalog

COSMOS 2245

AktivNavigationPO
NORAD 22646·PAYLOAD·🇷🇺 Russia

Gestartet May 11, 1993 von Plesetsk Cosmodrome

Loading…

Nächste Überflüge (nächste 24 Stunden)

TLE

AktuellSource: Space-Track

Epoche: Sep 14, 2026, 00:44 UTC

1 22646U 93030A   26257.03105882  .00000008  00000-0 -12831-4 0  9992
2 22646  82.5797 253.4013 0012838  60.7735 316.4361 12.64078662538303

Verfolge COSMOS 2245 in Echtzeit mit AllMySat

Download on the App Store